Погода в Вязьме

Погода в Вязьме : погода сейчас, прогноз погоды и архив. Всё, что Вы хотите узнать о погоде в Вязьме!

Поиск расширенной информации на нашем сайте:

Другие новости

Новости СМИ2

Главная страница сайта

Новости сайта

02.10.2013

Напоминаем, что на нашем новом сайте вы можете получить высокодетализированные прогнозы погоды по пунктам России, СНГ и мира (включающие важные для авиации метеовеличины, такие как направление и скорость ветра, видимость, явления погоды, количество и форма облачности, нижняя и верхняя граница облачности), а также ознакомиться с разнообразными материалами по авиационной метеорологии и подборкой полезных ссылок на эту тему.

Сайт Метеоцентр.Азия посвящён разработке технологий оптимизации авиаметеорологического обслуживания, включая проектирование и перспективное создание нескольких автоматизированных авиаметеорологических систем:
- система выпуска высокодетальных прогностических карт явлений погоды для нижнего воздушного пространства по России и ближнему зарубежью;
- система верификации прогнозов TAF (выпускаемых синоптиками официальных АМСГ РФ и ближнего зарубежья) и AUTOTAF (выпускаемых сайтом Метеоцентр.Азия) - выявление ошибок, онлайн-сопоставление с фактической погодой METAR, автоматическое внесение коррективов в прогнозы при резком отклонении фактической погоды от прогноза, подсчёт оправдываемости прогнозов по элементам и в целом;
- система обработки, анализа и отображения авиаметеорологической информации для применения провайдерами метеорологической информации.


Погода в Вязьме - сегодня

Время (UTC), дата Ветер
(°,м/с) 
Видим.   Явления Облачность Т
(°С)
Тd
(°С)
f(%) Тe
(°С)
Pmin
(гПа)
dP
(гПа)
Po
(мм)
O2
(г/м3)
Тmin Tmax R s Состояние
почвы
18 18.01.17 250 (З) 10 км    3/0 верхняя 
[Ci fib]
-7 -8.8 87 -11  1036.5  -0.4  753  312    -4.3       
21 18.01.17 240 (ЮЗ) 4000 м  дымка  9/9 360 м 
[Sc]
-7.3 -8.4 92 -12  1035.4  -1.1  752  312           
00 19.01.17 240 (ЮЗ) 4000 м    9/9 300 м 
[St]
-6.9 -8.4 89 -10  1034.3  -1  752  312           
03 19.01.17 240 (ЮЗ) 10 км    9/0 средняя 
[Ac trans]
-7.1 -9.5 83 -11  1032.2  -2  750  311  -7.7         
06 19.01.17 240 (ЮЗ) 10 км    10/10 300 м 
[St]
-6.4 -9.2 80 -11  1030.4  -1.6  749  310  -7.7      35  неравномерный
сухой снег
100% 
09 19.01.17 240 (ЮЗ) 6{11}  10 км    10/10 480 м 
[Sc]
-5.6 -8.2 82 -10  1028.4  -1.9  747  308           
12 19.01.17 240 (ЮЗ) 5{10}  10 км    10/10 480 м 
[Sc]
-4.9 -7 85 -9  1026.4  -1.8  746  307           
15 19.01.17 250 (З) 6{12}  4000 м  {ливн. осадки}  10/10 480 м кучево-дожд. 
[Cb calv]
-5.4 -7.2 87 -10  1025.1  -1.3  745  307      0.0     
18 19.01.17 250 (З) 6{10}  10 км  {ливн. осадки}  10/0 средняя 
[Ac und]
-5.7 -7.4 88 -10  1023  -2.1  743  307    -4.7  0.0     
21 19.01.17 260 (З) 6{11}  10 км    10/10 420 м 
[Sc]
-4.8 -6.4 89 -9  1020.6  -2.2  742  305           
00 20.01.17 250 (З) 6-10{11}  4000 м  дымка  10/10 300 м 
[St]
-4.6 -5.2 96 -9  1018.3  -2.2  740  304           
03 20.01.17 260 (З) 5{12}  4000 м  дымка  10/3 300 м средняя 
[Sc|Ac und]
-4 -5.1 92 -8  1017.4  -0.9  740  303  -6.1    0.0     
06 20.01.17 270 (З) 4000 м  дымка  10/10 330 м 
[St]
-2.8 -3.8 93 -6  1017.6  0.3  740  302  -5.7      34  неравномерный
сухой снег
100% 
09 20.01.17 280 (З) 10 км  {ливн. осадки}  9/9 360 м 
[Sc]
-0.9 -2.5 89 -3  1017.8  0.4  740  299           
12 20.01.17 310 (СЗ) 6{11}  10 км  {ливн. осадки}  3/0 средняя 
[Ac trans]
-0.5 -6.2 65 -4  1018.1  0.4  740  300           
15 20.01.17 290 (З) 10 км    6/0 средняя 
[Ac trans]
-2.6 -6 77 -5  1018.7  0.3  741  302           
18 20.01.17 260 (З) 10 км    ясно 
-4.1 -5.8 88 -4  1018.2  -0.7  740  303    +0.3  0.0     
21 20.01.17 260 (З) 10 км    ясно 
-3 -4.3 91 -5  1016.5  -1.4  739  302           
00 21.01.17 250 (З) 4000 м  дымка  10/10 400 м 
[Sc]
-2.1 -2.6 96 -4  1013.9  -2.4  737  300           
03 21.01.17 290 (З) 4000 м  дымка  10/10 300 м 
[St]
-0.9 -1.3 97 -3  1012  -1.7  736  298  -4.3         
06 21.01.17 320 (СЗ) 4000 м  дымка  10/10 270 м 
[St]
-0.2 -1.4 92 -3  1012.9  737  297  -4.3      34  неравномерный
сухой снег
100% 
09 21.01.17 310 (СЗ) 4{10}  10 км  {ливн. осадки}  8/8 480 м кучево-дожд. 
[Cb calv]
-0.7 -4.3 77 -3  1014.2  1.2  737  298           
12 21.01.17 310 (СЗ) 7-12{13}  10 км  {ливн. осадки}  8/8 630 м 
[Sc]
-1.2 -6.8 66 -5  1014.8  0.6  738  299           
15 21.01.17 320 (СЗ) 6{12}  10 км  {ливн. осадки}  8/8 540 м кучево-дожд. 
[Cb calv]
-2.7 -6.6 74 -7  1017.9  2.8  740  302      0.3     
18 21.01.17 320 (СЗ) 5{10}  10 км  {ливн. осадки}  6/6 480 м 
[Sc]
-3.6 -6.8 78 -7  1021.1  2.8  742  304    -0.2  0.3     
Время (UTC), дата Ветер
(°,м/с) 
Видим.   Явления Облачность Т
(°С)
Тd
(°С)
f(%) Тe
(°С)
Pmin
(гПа)
dP
(гПа)
Po
(мм)
O2
(г/м3)
Тmin Tmax R s Состояние
почвы

Для получения пояснительной информации подведите курсор к названию столбца.

ПОГОДА в Вязьме - архив

Всё, что Вы хотите узнать о погоде в Вязьме - удобно и подробно!

Выберите нужную дату (начиная с 1 января 2015* года) и нажмите кнопку "Найти".
Будут отображены архивные сводки погоды по пункту Вязьма, начиная с указанной даты.


Отображать данные в формате CSV (для использования в таблицах Excel)


Внимание! Наш архив погоды предназначен исключительно для личного некоммерческого использования в познавательных целях. Если Вам необходимы официальные справки о состоянии погоды (для производственных, юридических, коммерческих и т.п. целей), обращайтесь в органы Росгидромета.

*Примечание: данная дата относится к архиву по метеостанциям СССР (Россия, СНГ, Балтия).
Архив по метеостанциям Зарубежной Европы и Азии (кроме Китая) хранится 10 дней, по другим регионам земного шара (Китай, Африка, Америка, Австралия, Океания) - 1 день.

Вязьма - район местоположения метеостанции


Название, широта, долгота, высота метеостанции:
Вязьма 55.2°ш. 34.4°д. 251 м над ур. моря [Российская Федерация]

Дополнительная информация

В oтличие oт бoльшинства пoгoдных сайтoв мы публикуем пoдрoбную метеoинфoрмацию в детальнoм прoфессиoнальнoм фoрмате.

Характеристики температуры и влажнoсти вoздуха измеряются на высoте 2 м в тени вдали oт зданий и деревьев.
Скoрoсть ветра измеряется на высoте 10 м (на урoвне рoста челoвека скoрoсть ветра ниже в 1.5-2 раза). Если метеoстанция нахoдится в гoрoде или в лесу, тo скoрoсть ветра занижена на 2-4 м/с пo сравнению с oткрытым местoм. Скoрoсть ветра над акватoриями крупных рек и oзёр, а также на вершинах хoлмoв на 2-5 м/с выше, чем в oбычных услoвиях.
Атмoсфернoе давление в разных тoчках местнoсти мoжет значительнo oтличаться oт давления на метеoстанции, в зависимoсти oт услoвий рельефа (при пoдъёме на 10 м давление пoнижается примернo на 1 мм рт.ст.).